STARLINK-2065 (47672 NORAD) Tracking and Keplerian Element Data

This shows tracking and keplerian element data for the satellite.

Feedback or suggestion? Click here.




ElementValue
Catalog47672
NameSTARLINK-2065
Epoch Orbit178
Epoch Day59.91667824
Epoch Year2021
RAAN38.0949
Inclination53.0497
Eccentricity0.0001759
Argument of Perigee108.2637
Mean Anonmoly23.9996
Mean Motion15.86603302
Decay Rate0.00094838
L11 47672U 21012BE 21059.91667824 .00094838 00000-0 36497-3 0 9996
L22 47672 53.0497 38.0949 0001759 108.2637 23.9996 15.86603302 1786

Live tracking and technical data element details for STARLINK-2065 (NORAD 47672). STARLINK-2065 can be tracked NOW for your location showing map with azimuth and elevation plus other details from your city location.

Track the satellite on the map from your city or location and see movement details for azimuth, elevation, latitude, longitude, range, height, and movement on the map or in text.







IsCatalogInMostPopularTable: catalog: 47672, numindb: 4
Update: records affected: 1



GetName: 47672 STARLINK-2065

Hit Count: updated at: Mon, 01 Mar 2021 16:21:42 GMT